Location: Baggett Branch
(32.6074°N, 97.0167°W)
Time: 22:59:06
(UTC+00:00)

Cosmos 2219 - Pass Details

Date: 10 February 2026
Orbit: 832 x 859 km, 71.1° (Epoch: 11 March)

Event Time Altitude Azimuth Distance (km) Brightness Sun altitude
Rises 12:30:58 0° 347° (NNW) 3,429 6.1 -10.0°
Reaches altitude 10° 12:33:34 10° 354° (N) 2,486 5.5 -9.4°
Maximum altitude 12:38:58 43° 65° (ENE) 1,172 4.5 -8.3°
Drops below altitude 10° 12:44:20 10° 137° (SE) 2,457 6.6 -7.2°
Sets 12:46:52 0° 144° (SE) 3,384 7.2 -6.7°
